{"data":{"norad_id":40042,"epoch":"2026-09-18T19:19:58.378656Z","epoch_age_seconds":160864,"freshness":"FRESH","line1":"1 40042U 14033AJ  26261.80553679  .00013247  00000+0  37736-3 0  9996","line2":"2 40042  98.0888 297.1259 0006839 166.6824 193.4599 15.36223873667950","mean_motion":15.36223873,"eccentricity":0.0006839,"inclination_deg":98.0888,"raan_deg":297.1259,"arg_perigee_deg":166.6824,"mean_anomaly_deg":193.4599,"bstar":0.00037736,"rev_number":66795,"period_min":93.73633786773,"perigee_km":452.61292237538,"apogee_km":461.96241623805,"semimajor_km":6835.4246693067,"source":"CELESTRAK","updated_at":"2026-09-20T09:00:48.026050Z"}}